User: anonymous   Login
Location: Unspecified
(35.6961°N, 0.0000°E)
Time: 02:32:40
(UTC+00:00)
Language:

SRMSAT - Orbit

View from above orbital plane
View from above orbital plane
View from above satellite
View from above satellite

Ground track
Ground track

The orbit data is extracted from the following two-line orbital elements,

1 37841U 11058D   19167.04090660  .00000279  00000-0  80433-5 0  9998
2 37841  19.9733  47.5692 0011904 167.4764 332.5941 14.10633414396316
Epoch (UTC): 16 June 2019 00:58:54
Eccentricity: 0.0011904
inclination: 19.9733°
perigee height: 848 km
apogee height: 866 km
right ascension of ascending node: 47.5692°
argument of perigee: 167.4764°
revolutions per day: 14.10633414
mean anomaly at epoch: 332.5941°
orbit number at epoch: 39631

The dashed part of the orbit path shows where the satellite is in the earth's shadow,  

DLR